Regional Weather Roundup
Issued by NWS

Home | Current Version | Previous Version | Graphics & Text | Print | Product List | Glossary On
Versions: 1 2 3 4 5 6 7 8 9 10 11 12 13 14 15 16 17 18 19 20 21 22 23 24 25 26 27 28 29 30 31 32 33 34 35 36 37 38 39 40 41 42 43 44 45 46 47 48 49 50
103
ASUS43 KTOP 122359
RWRKS

WEATHER ROUNDUP FOR KANSAS
NATIONAL WEATHER SERVICE GOODLAND KS
600 PM CST FRI FEB 12 2016

NOTE:  "FAIR" INDICATES FEW OR NO CLOUDS BELOW 12,000 FEET WITH NO
SIGNIFICANT WEATHER AND/OR OBSTRUCTIONS TO VISIBILITY.

KSZ001>006-013>018-027>032-041>047-130100-
NORTHWEST KANSAS

CITY           SKY/WX    TMP DP  RH WIND       PRES   REMARKS
GOODLAND       CLOUDY    32  29  88 E14       30.34F WCI  22
6HR MIN TEMP:  32; 6HR MAX TEMP:  42;

HAYS           CLOUDY    36  21  55 E12       30.45R WCI  27
HILL CITY      CLOUDY    35  27  72 E10       30.45R WCI  27
6HR MIN TEMP:  35; 6HR MAX TEMP:  38;

RUSSELL        CLOUDY    34  26  72 NE10      30.45R WCI  26
6HR MIN TEMP:  30; 6HR MAX TEMP:  37;

$$

KSZ061>065-074>080-084>089-130100-
SOUTHWEST KANSAS

CITY           SKY/WX    TMP DP  RH WIND       PRES   REMARKS
DODGE CITY     CLOUDY    36  27  69 NE10      30.40R WCI  28
6HR MIN TEMP:  36; 6HR MAX TEMP:  45;

ELKHART          N/A     58  28  32 SE12        N/A
GARDEN CITY    CLOUDY    38  29  70 E18       30.37R WCI  28
6HR MIN TEMP:  38; 6HR MAX TEMP:  51;

GREAT BEND     CLOUDY    36  21  55 NE9       30.46R
LIBERAL        CLEAR     52  28  40 E14       30.34R
$$

KSZ066>073-081>083-090>101-130100-
SOUTHEAST KANSAS

CITY           SKY/WX    TMP DP  RH WIND       PRES   REMARKS
CHANUTE        CLOUDY    38  22  52 N10       30.47R WCI  31
6HR MIN TEMP:  38; 6HR MAX TEMP:  46;

COFFEYVILLE    CLOUDY    43  26  51 N12       30.46R
6HR MIN TEMP:  43; 6HR MAX TEMP:  48;

HUTCHINSON     CLOUDY    36  24  62 NE7       30.46F
6HR MIN TEMP:  33; 6HR MAX TEMP:  39;

MEDICINE LODGE   N/A     39  27  62 NE13      30.43R WCI  31
NEWTON         CLOUDY    34  21  60 NE10      30.48S WCI  26
PARSONS        PTCLDY    42  25  50 N12G18    30.46R
6HR MIN TEMP:  42; 6HR MAX TEMP:  48;

WICHITA INTL   CLOUDY    38  25  59 N13       30.46S WCI  30
6HR MIN TEMP:  37; 6HR MAX TEMP:  46;

WICHITA JABRA  CLOUDY    37  24  59 NE14      30.45F WCI  28
6HR MIN TEMP:  35; 6HR MAX TEMP:  43;

WINFIELD       CLEAR     42  25  50 N12       30.45R
6HR MIN TEMP:  41; 6HR MAX TEMP:  48;

$$

KSZ007>012-019>026-033>040-048>060-102>105-130100-
NORTHEAST KANSAS

CITY           SKY/WX    TMP DP  RH WIND       PRES   REMARKS
CONCORDIA      CLOUDY    28  17  63 N12       30.52R WCI  18
6HR MIN TEMP:  28; 6HR MAX TEMP:  35;

EMPORIA        CLOUDY    34  20  56 N9        30.48R
6HR MIN TEMP:  34; 6HR MAX TEMP:  42;

LAWRENCE       CLEAR     29  12  49 N14       30.52R WCI  18
6HR MIN TEMP:  29; 6HR MAX TEMP:  39;

MANHATTAN      CLOUDY    32  15  49 NE13      30.52R WCI  22
6HR MIN TEMP:  32; 6HR MAX TEMP:  38;

OLATHE IND     CLEAR     30  12  47 N16       30.50R WCI  19
6HR MIN TEMP:  30; 6HR MAX TEMP:  39;

OLATHE EXE     CLEAR     31  10  41 N14       30.49R WCI  21
6HR MIN TEMP:  31; 6HR MAX TEMP:  39;

SALINA         MOCLDY    35  22  58 NE10      30.51R WCI  27
6HR MIN TEMP:  34; 6HR MAX TEMP:  39;

TOPEKA BILLARD CLEAR     31  13  47 N14       30.52R WCI  21
6HR MIN TEMP:  31; 6HR MAX TEMP:  40;

TOPEKA FORBES  CLEAR     32  14  47 N10G21    30.50R WCI  24
6HR MIN TEMP:  32; 6HR MAX TEMP:  41;

$$




USA.gov is the U.S. government's official web portal to all federal, state and local government web resources and services.